SCP
0 0 0 0 0 0 0 0 0 0 0 0 0 0 0 0 0 1 1 1 1 1 1 1 1 1 1 1 0 0 0 0 0 0 0 0 0 0 0 0 0 0 0
0 0 0 0 0 0 0 0 0 0 0 0 0 0 0 0 0 0 1 1 1 1 1 1 1 1 1 1 0 0 0 0 0 0 0 0 0 0 0 0 0 0 0
0 0 0 0 0 0 0 0 0 0 0 0 0 0 0 0 0 0 1 1 1 1 1 1 1 1 1 1 0 0 0 0 0 0 0 0 0 0 0 0 0 0 0
0 0 0 0 0 0 0 0 0 0 0 0 0 0 0 0 0 0 0 1 1 1 1 1 1 1 1 1 1 0 0 0 0 0 0 0 0 0 0 0 0 0 0
0 0 0 0 0 0 0 0 0 0 0 0 0 0 0 0 0 0 0 0 1 1 1 1 1 1 1 1 1 0 0 0 0 0 0 0 0 0 0 0 0 0 0
0 0 0 0 0 0 0 0 0 0 0 0 0 0 0 0 0 0 0 0 0 1 1 1 1 1 1 1 1 0 0 0 0 0 0 0 0 0 0 0 0 0 0
0 0 0 0 0 0 0 0 0 0 0 0 0 0 0 0 0 0 0 0 0 0 1 1 1 1 1 1 1 0 0 0 0 0 0 0 0 0 0 0 0 0 0
0 0 0 0 0 0 0 0 0 0 0 0 0 0 0 0 0 0 0 0 0 0 0 0 1 1 1 1 1 0 0 0 0 0 0 0 0 0 0 0 0 0 0
0 0 0 0 0 0 0 0 0 0 0 0 0 0 0 0 0 0 0 0 0 0 0 0 0 0 0 0 0 0 0 0 0 0 0 0 0 0 0 0 0 0 0
0 0 0 0 0 0 0 0 0 0 0 0 0 0 0 0 0 0 0 0 0 0 0 0 0 0 0 0 0 0 0 0 0 0 0 0 0 0 0 0 0 0 0
0 0 0 0 0 0 0 0 0 0 0 0 0 0 0 0 0 0 0 0 0 0 0 0 0 0 0 0 0 0 0 0 0 0 0 0 0 0 0 0 0 0 0
0 0 0 0 0 0 0 0 0 0 0 0 0 0 0 0 0 0 0 0 0 0 0 0 0 0 0 0 0 0 0 0 0 0 0 0 0 0 0 0 0 0 0
0 0 0 0 0 0 0 0 0 0 0 0 0 0 0 0 0 0 0 0 0 0 0 0 0 0 0 0 0 0 0 0 0 0 0 0 0 0 0 0 0 0 0
0 0 0 0 0 0 0 0 0 0 0 0 0 0 0 0 0 0 0 0 0 0 0 0 0 0 0 0 0 0 0 0 0 0 0 0 0 0 0 0 0 0 0
0 0 0 0 0 0 0 0 0 0 0 0 0 0 0 0 0 0 0 0 0 0 0 0 0 0 0 0 0 0 0 0 0 0 0 0 0 0 0 0 0 0 0
0 0 0 0 0 0 0 0 0 0 0 0 0 0 0 0 0 0 0 0 0 0 0 0 0 0 0 0 0 0 0 0 0 0 0 0 0 0 0 0 0 0 0
0 0 0 0 0 0 0 0 0 0 0 0 0 0 0 0 0 0 0 0 0 0 0 0 0 0 0 0 0 0 0 0 0 0 0 0 0 0 0 0 0 0 0
0 0 0 0 0 0 0 0 0 0 0 0 0 0 0 0 0 0 0 0 0 0 0 0 0 0 0 0 0 0 0 0 0 0 0 0 0 0 0 0 0 0 0
0 0 0 0 0 0 0 0 0 0 0 0 0 0 0 0 0 0 0 0 0 0 0 0 0 0 0 0 0 0 0 0 0 0 0 0 0 0 0 0 0 0 0
0 0 0 0 0 0 0 0 0 0 0 0 0 0 0 0 0 0 0 0 0 0 0 0 0 0 0 0 0 0 0 0 0 0 0 0 0 0 0 0 0 0 0
0 0 0 0 0 0 0 0 0 0 0 0 0 0 0 0 0 0 0 0 0 0 0 0 0 0 0 0 0 0 0 0 0 0 0 0 0 0 0 0 0 0 0
0 0 0 0 0 0 0 0 0 0 0 0 0 0 0 0 0 0 0 0 0 0 0 0 0 0 0 0 0 0 0 0 0 0 0 0 0 0 0 0 0 0 0
0 0 0 0 0 0 0 0 0 0 0 0 0 0 0 0 0 0 0 0 0 0 0 0 0 0 0 0 0 0 0 0 0 0 0 0 0 0 0 0 0 0 0
0 0 0 0 0 0 0 0 0 0 0 0 0 0 0 0 0 0 0 0 0 0 0 0 0 0 0 0 0 0 0 0 0 0 0 0 0 0 0 0 0 0 0
0 0 0 0 0 0 0 0 0 0 0 0 0 0 0 0 0 0 0 0 0 0 0 0 0 0 0 0 0 0 0 0 0 0 0 0 0 0 0 0 0 0 0
0 0 0 0 0 0 0 0 0 0 0 0 0 0 0 0 0 0 0 0 0 -0 0 0 0 0 0 0 0 0 0 0 0 0 0 0 0 0 0 0 0 0 0
Wind_Speed
12 11 11 11 11 11 11 9 8 7 6 4 4 4 4 4 3 3 5 5 5 6 5 4 5 4 4 4 3 2 1 0 0 0 1 1 2 3 3 2 2 3 6
12 12 11 11 11 11 10 10 9 8 7 5 4 4 4 4 4 3 3 4 5 5 6 5 5 5 4 4 4 3 2 1 1 1 1 1 2 2 2 2 2 2 3
12 12 12 11 11 11 11 10 10 10 8 7 5 5 4 4 4 4 3 3 5 5 5 5 5 5 5 5 5 5 5 3 2 2 2 2 3 1 2 3 3 2 2
10 10 11 12 12 11 11 11 10 10 10 8 6 7 5 4 5 4 3 3 4 4 4 5 5 6 5 5 6 6 5 5 3 2 2 2 2 2 1 2 1 2 2
11 10 10 10 11 11 10 10 10 10 10 9 7 6 5 5 4 4 3 3 3 3 4 5 5 6 5 6 6 6 6 5 4 3 2 1 1 1 2 2 2 1 0
9 9 10 9 10 10 9 9 9 9 9 9 8 7 7 6 5 5 3 3 2 2 2 3 4 5 5 5 6 6 7 6 6 4 3 3 2 2 2 2 1 1 1
8 9 10 10 9 10 10 9 10 10 10 9 9 8 8 7 5 5 4 3 2 2 2 3 3 3 4 5 5 6 7 7 7 6 4 3 3 2 2 2 1 1 1
7 8 8 8 8 9 9 9 10 9 9 9 9 8 8 5 4 5 4 3 2 2 2 2 2 3 4 5 5 5 6 6 6 7 6 4 4 3 3 3 3 2 2
7 7 7 7 8 8 8 8 9 9 9 9 8 8 9 7 6 6 5 3 3 3 3 2 0 2 4 5 5 4 4 5 5 6 6 4 4 4 4 3 3 4 3
7 6 6 6 6 6 6 7 7 8 8 8 8 7 7 7 7 7 7 6 5 5 4 3 2 2 1 2 3 3 3 4 4 4 5 5 4 4 4 3 3 3 3
5 4 4 5 5 6 6 6 7 7 8 8 8 7 7 7 8 7 7 6 5 5 4 4 4 3 3 2 2 2 2 3 3 3 5 5 5 4 4 3 3 3 3
4 4 5 5 5 6 6 6 6 7 7 7 8 7 7 8 8 8 8 8 8 7 6 5 5 5 5 4 4 3 2 2 3 3 3 4 4 4 4 3 4 3 3
5 5 4 4 4 4 5 5 6 6 6 6 7 8 8 8 8 9 9 9 8 8 8 7 7 6 6 5 5 4 3 3 3 3 3 3 4 4 3 3 3 3 3
4 4 3 3 3 4 4 5 5 5 6 6 7 7 8 8 8 8 8 9 8 8 8 8 8 7 7 7 6 4 3 4 4 4 4 3 3 3 4 3 3 3 3
4 4 3 4 4 3 4 4 5 5 5 6 6 7 7 7 7 8 8 8 8 9 8 8 8 7 7 7 7 4 4 4 4 4 4 4 6 6 4 3 3 4 3
4 4 4 4 4 4 4 4 4 4 5 5 6 6 7 7 7 7 7 7 7 8 8 8 8 8 8 10 11 7 4 4 4 4 4 5 6 8 9 9 7 5 4
3 4 4 3 3 3 3 4 4 4 5 5 5 6 6 7 7 8 8 7 7 7 8 8 8 8 9 13 12 11 5 4 3 4 3 4 5 5 5 7 8 8 7
3 3 3 3 3 4 3 3 3 4 5 5 5 5 6 6 6 6 7 7 6 6 6 7 7 7 10 15 14 11 5 5 5 4 4 5 5 5 5 7 7 8 7
2 2 3 3 3 4 4 4 4 4 5 5 5 5 6 6 6 6 6 5 5 5 5 6 7 7 9 14 14 10 4 5 6 6 7 6 6 8 8 7 7 7 6
2 2 3 4 4 4 4 3 4 4 5 5 5 5 5 5 5 5 4 4 4 4 5 6 6 7 7 13 14 11 4 5 5 5 7 11 9 8 7 6 6 6 4
1 1 2 2 3 3 3 4 5 5 4 4 4 4 4 3 4 4 3 3 3 4 4 5 5 7 8 10 14 13 5 4 5 5 5 5 10 11 10 7 5 5 4
3 0 1 1 1 2 3 4 4 3 3 3 2 2 3 4 4 3 4 4 4 4 4 4 5 4 6 8 10 12 11 8 6 5 4 5 10 11 10 7 7 7 5
3 2 1 1 0 2 3 3 3 2 2 2 1 1 2 2 3 4 4 4 4 4 3 4 4 4 4 6 10 10 11 10 6 4 6 6 6 7 6 8 7 5 4
3 3 3 2 1 3 2 2 2 1 2 2 1 1 2 3 4 4 4 4 4 4 4 4 4 3 4 5 6 4 3 5 5 3 4 6 7 5 4 4 5 4 4
4 4 2 1 1 3 3 3 2 2 2 3 3 2 3 2 2 3 3 3 3 3 2 3 4 4 4 4 7 5 4 4 3 2 0 1 2 3 3 3 3 3 3
5 5 4 3 3 3 4 4 2 2 2 1 2 2 2 2 1 3 3 3 3 4 4 4 3 3 4 4 6 7 8 8 8 4 2 3 3 3 3 3 3 3 3
Wind_Direction
5 10 4 1 355 349 344 338 334 332 327 323 317 311 304 297 282 261 245 235 230 219 209 206 201 196 193 186 189 183 169 199 251 275 337 314 230 196 183 208 189 179 161
2 2 359 357 353 349 343 337 339 333 328 322 311 291 290 284 279 271 258 243 238 230 218 205 195 193 193 190 189 174 162 190 191 157 143 306 314 300 187 189 208 199 162
359 358 355 357 353 350 346 342 340 336 334 334 321 312 303 291 287 283 273 252 237 230 221 204 192 195 191 190 191 184 175 188 198 168 153 169 218 270 291 207 199 210 185
1 2 359 357 352 351 348 344 344 343 342 337 326 319 307 299 291 288 275 271 253 236 226 211 201 195 195 191 193 185 176 169 195 203 186 190 161 159 262 280 214 209 196
3 3 3 360 355 354 352 350 349 349 346 339 332 324 316 303 295 293 290 282 260 237 223 213 203 198 196 196 193 184 179 177 185 188 181 205 207 206 182 251 293 318 306
2 2 6 2 357 356 353 353 353 352 347 344 343 339 329 320 318 314 312 305 286 260 237 217 199 198 192 195 195 188 185 187 188 182 182 179 175 186 182 201 222 255 288
5 5 7 360 357 357 357 354 355 355 352 352 353 348 341 336 333 331 323 317 310 292 244 237 204 198 195 193 192 190 192 187 182 180 185 189 196 180 180 190 200 219 264
10 11 10 358 356 357 358 357 356 356 358 359 357 355 354 350 344 341 337 330 325 305 299 248 206 195 195 193 190 195 195 187 184 188 187 190 196 190 184 175 166 192 233
10 12 10 3 1 358 360 360 359 360 1 360 359 4 1 358 352 350 352 345 344 352 355 359 37 198 196 190 185 190 190 182 184 188 186 183 188 188 189 180 171 171 186
11 11 9 7 2 358 357 5 6 6 1 1 4 7 3 6 5 9 8 5 4 6 14 19 28 49 101 156 165 165 169 168 177 179 183 181 181 182 178 174 174 171 168
9 13 12 10 6 1 4 8 7 10 7 4 4 6 9 15 16 12 8 8 9 11 20 30 38 47 54 69 101 126 148 164 175 182 181 180 172 169 170 164 165 169 163
11 23 21 15 10 8 9 13 12 12 10 6 5 9 17 18 17 13 11 13 16 18 24 37 41 47 49 51 62 75 102 141 149 152 147 149 147 146 148 156 162 167 168
21 28 19 15 10 9 13 16 19 15 13 11 10 13 19 19 17 15 12 17 21 23 26 34 40 45 46 43 45 49 65 81 94 106 120 126 134 144 150 154 154 156 149
28 27 12 20 14 16 22 23 20 19 22 18 16 18 19 19 19 17 17 22 20 26 30 34 39 42 43 41 35 36 50 66 72 77 88 103 118 139 153 154 151 144 140
26 20 15 21 12 24 32 35 24 21 26 26 25 20 20 21 19 20 21 23 21 27 29 36 40 38 40 34 25 23 42 64 71 70 81 94 102 99 110 123 133 135 135
25 14 18 27 10 29 34 37 29 27 31 30 29 24 26 23 19 20 22 26 26 27 31 38 43 40 36 30 28 28 30 54 69 71 77 97 101 101 96 95 95 101 119
27 22 19 20 4 34 48 49 38 35 37 34 33 32 33 30 24 21 21 25 29 30 33 37 42 43 34 32 29 25 30 51 64 67 72 90 93 96 100 94 85 70 69
33 23 5 5 18 30 39 70 64 52 47 34 29 36 37 31 26 23 23 24 27 30 31 35 37 40 33 29 26 25 43 53 63 61 58 73 73 73 83 92 80 67 53
38 19 354 353 29 37 26 46 55 60 53 38 29 37 39 32 24 23 25 23 24 28 33 37 36 41 34 27 26 22 41 58 62 61 56 57 64 66 82 96 97 90 77
52 5 344 11 26 28 24 39 53 58 53 41 34 34 39 38 27 20 20 18 25 28 39 43 42 45 42 32 30 24 32 49 59 60 57 53 56 58 80 94 98 100 103
122 325 338 39 31 15 21 44 54 58 57 48 41 34 28 43 41 13 11 23 27 26 41 51 52 51 44 39 37 34 33 37 56 59 54 45 51 60 68 76 89 98 102
153 168 333 45 69 33 30 67 69 70 73 63 44 52 39 26 42 26 14 18 20 29 38 46 48 51 50 41 37 40 44 48 58 59 55 50 56 60 62 65 63 66 75
162 157 206 280 168 99 63 78 90 101 115 112 74 63 89 68 39 30 28 21 19 25 29 36 42 42 44 33 32 42 51 56 63 61 62 59 61 58 58 55 54 61 73
171 172 212 223 134 112 111 111 129 171 162 147 137 83 69 68 63 42 36 39 24 18 19 23 26 38 46 25 8 7 43 61 62 66 65 64 64 61 50 51 55 58 73
171 187 210 159 190 165 149 140 160 221 209 179 164 140 109 95 89 90 55 57 69 58 34 17 16 26 36 13 9 18 20 20 22 354 49 75 69 64 56 52 53 62 67
185 185 178 198 233 188 158 153 167 264 268 137 111 124 140 143 151 142 125 54 80 99 77 63 60 70 60 21 19 21 16 10 4 19 61 72 71 73 77 75 61 57 57